Weather Roundup
Issued by NWS Springfield, MO

Home | Current Version | Previous Version | Text Only | Print | Product List | Glossary On
Versions: 1 2 3 4 5 6 7 8 9 10 11 12 13 14 15 16 17 18 19 20 21 22 23 24 25 26 27 28 29 30 31 32 33 34 35 36 37 38 39 40 41 42 43 44 45 46 47 48 49 50
000
NZUS99 KSGF 282007
HRRSGF

HOURLY WEATHER
NATIONAL WEATHER SERVICE SPRINGFIELD MO
300 PM CDT TUE MAR 28 2017

......SGF CWA......

CITY           SKY/WX    TMP DP  RH WIND       PRES   REMARKS
SPRINGFIELD    MOSUNNY   63  49  60 E9G16     29.97F
JOPLIN         PTSUNNY   61  51  70 E12       29.94F
WEST PLAINS    CLOUDY    64  50  60 CALM      30.02F
ROLLA          CLOUDY    57  50  77 SE9       30.03F
OSAGE BEACH    CLOUDY    59  50  72 E8        30.03F
BRANSON        MOSUNNY   66  52  59 E10       29.98F

......SURROUNDING SGF CWA......

CITY           SKY/WX    TMP DP  RH WIND       PRES   REMARKS
CHANUTE        CLOUDY    57  48  72 E10       29.96F
PARSONS        CLOUDY    58  49  72 NE8       29.95F
COFFEYVILLE    CLOUDY    58  49  72 NE14      29.93F
EMPORIA        CLOUDY    54  49  83 E13       29.97F
GROVE OK       SUNNY     72  54  53 E8        29.90F
ROGERS AR      SUNNY     69  52  54 E10       29.92F
SILOAM SPRINGS SUNNY     72  54  53 SE8       29.89F
HARRISON AR    SUNNY     66  53  63 SE9G17    29.96F
NEAR YELLVILLE MOSUNNY   70  52  52 E9        29.95F

......KANSAS AND MISSOURI......

CITY           SKY/WX    TMP DP  RH WIND       PRES   REMARKS
KANSAS CTY INT CLOUDY    54  49  83 E9        30.03F
DOWNTOWN KC    CLOUDY    55  50  83 E10       30.02F
COLUMBIA       CLOUDY    57  51  80 E5        30.05F
SEDALIA        CLOUDY    56  51  84 E9        30.04F
ST JOSEPH      CLOUDY    54  48  80 E10       30.05F
ST LOUIS       CLOUDY    58  48  69 NE5       30.08F
SPIRIT OF STL  CLOUDY    57  50  77 E7        30.07F
KIRKSVILLE     CLOUDY    53  48  83 NE8       30.08F
WICHITA        CLOUDY    54  47  77 E18G24    29.91F
TOPEKA         CLOUDY    56  50  80 E8        30.01F
OLATHE         CLOUDY    52  50  93 E9        30.02F

......TENNESSEE......

CITY           SKY/WX    TMP DP  RH WIND       PRES   REMARKS
MEMPHIS        MOSUNNY   78  58  49 NE7       29.97F
NASHVILLE      PTSUNNY   69  52  54 MISG      30.01F

......ARKANSAS.......

CITY           SKY/WX    TMP DP  RH WIND       PRES   REMARKS
FAYETTEVILLE   SUNNY     74  56  53 E7        29.89F
FT SMITH       SUNNY     75  57  53 E15       29.87F
LITTLE ROCK    MOSUNNY   72  60  66 VRB5      29.94F

......OKLAHOMA.......

CITY           SKY/WX    TMP DP  RH WIND       PRES   REMARKS
TULSA          MOSUNNY   72  51  47 E9        29.84F
PONCA CITY     CLOUDY    63  48  58 E18       29.87F
MCALESTER      CLOUDY    73  59  61 SE8G17    29.85F
OKLAHOMA CITY  CLOUDY    63  54  72 SE20      29.81F

......IOWA............

CITY           SKY/WX    TMP DP  RH WIND       PRES   REMARKS
DES MOINES     CLOUDY    51  42  71 NE8       30.10F
QUAD CITIES    CLOUDY    52  41  66 NE6       30.12F

......ILLINOIS........

CITY           SKY/WX    TMP DP  RH WIND       PRES   REMARKS
QUINCY         CLOUDY    53  48  83 NE8       30.09F
CHICAGO        PTSUNNY   50  38  63 NE12      30.13S




USA.gov is the U.S. government's official web portal to all federal, state and local government web resources and services.